CW1502 Weather Reports


time (UTC)temp
C
wind
direction
speed
KPH
gust
KPH
rain 1hr
cm
rain 24hr
cm
rain mn
cm
humidity
%
barometer
mb
20260509091540 11 0 0.0 0.0 0.00 0.00 0.00 80 1002.9
20260509090046 11 0 0.0 0.0 0.00 0.00 0.00 78 1003.3
20260509084542 11 0 0.0 0.0 0.00 0.00 0.00 78 1003.4
20260509083047 11 0 0.0 0.0 0.00 0.00 0.00 78 1003.5
20260509081545 11 0 0.0 0.0 0.00 0.00 0.00 76 1004.0
20260509080048 11 0 0.0 0.0 0.00 0.00 0.00 74 1003.9
20260509074540 11 0 0.0 1.6 0.00 0.00 0.00 71 1004.1
20260509073044 10 0 0.0 0.0 0.00 0.00 0.00 67 1004.2
20260509071538 10 0 0.0 0.0 0.00 0.00 0.00 61 1004.6
20260509070038 10 0 0.0 0.0 0.00 0.00 0.00 57 1004.7
20260509064541 10 0 0.0 0.0 0.00 0.00 0.00 54 1004.8
20260509063047 10 0 0.0 0.0 0.00 0.00 0.00 51 1004.9
20260509061546 10 0 0.0 0.0 0.00 0.00 0.00 48 1005.0
20260509060043 10 0 0.0 0.0 0.00 0.00 0.00 46 1005.1
20260509054540 10 0 0.0 0.0 0.00 0.00 0.00 45 1005.3
20260509053103 10 0 0.0 0.0 0.00 0.00 0.00 46 1005.4
20260509051544 9 0 0.0 0.0 0.00 0.00 0.00 46 1005.3
20260509050037 8 0 0.0 0.0 0.00 0.00 0.00 48 1005.4
20260509044540 8 0 0.0 0.0 0.00 0.00 0.00 49 1005.5
20260509043055 8 0 0.0 0.0 0.00 0.00 0.00 51 1005.6
20260509041553 8 0 0.0 0.0 0.00 0.00 0.00 49 1005.7
20260509040039 8 0 0.0 0.0 0.00 0.00 0.00 48 1005.8
20260509034550 8 0 0.0 0.0 0.00 0.00 0.00 47 1006.1
20260509033037 9 0 0.0 0.0 0.00 0.00 0.00 46 1006.1
20260509031542 9 0 0.0 0.0 0.00 0.00 0.00 46 1006.2
20260509030039 10 0 0.0 0.0 0.00 0.00 0.00 44 1006.4
20260509024538 10 0 0.0 0.0 0.00 0.00 0.00 44 1006.6
20260509023038 10 0 0.0 0.0 0.00 0.00 0.00 44 1006.7
20260509021538 11 0 0.0 0.0 0.00 0.00 0.00 44 1006.7
20260509020051 11 0 0.0 0.0 0.00 0.00 0.00 44 1006.6
20260509014539 12 0 0.0 0.0 0.00 0.00 0.00 42 1006.5
20260509013048 12 0 0.0 0.0 0.00 0.00 0.00 40 1006.5
20260509011538 13 0 0.0 0.0 0.00 0.00 0.00 36 1006.5
20260509010050 14 0 0.0 0.0 0.00 0.00 0.00 34 1006.6
20260509004537 15 0 0.0 0.0 0.00 0.00 0.00 31 1006.6
20260509003040 15 0 0.0 0.0 0.00 0.00 0.00 30 1006.7
20260509001538 15 0 0.0 0.0 0.00 0.00 0.00 30 1006.8
20260509000037 16 0 0.0 0.0 0.00 0.00 0.00 30 1007.0
20260508234538 16 0 0.0 1.6 0.00 0.00 0.00 29 1007.1
20260508233044 16 0 0.0 8.0 0.00 0.00 0.00 29 1007.2
20260508231538 17 0 0.0 16.1 0.00 0.00 0.00 28 1007.4
20260508230056 17 0 0.0 6.4 0.00 0.00 0.00 29 1007.3
20260508224542 17 0 0.0 8.0 0.00 0.00 0.00 30 1007.3
20260508223039 17 0 1.6 16.1 0.00 0.00 0.00 29 1007.3
20260508221548 17 262 1.6 17.7 0.00 0.00 0.00 29 1007.4
20260508220039 17 293 0.0 16.1 0.00 0.00 0.00 29 1007.4
20260508214537 17 0 0.0 16.1 0.00 0.00 0.00 30 1007.3
20260508213038 17 0 0.0 16.1 0.00 0.00 0.00 28 1007.4
20260508211540 17 0 0.0 17.7 0.00 0.00 0.00 28 1007.5
20260508210040 17 278 1.6 16.1 0.00 0.00 0.00 28 1007.6
20260508204547 17 0 0.0 14.5 0.00 0.00 0.00 30 1007.8
20260508203037 17 0 3.2 17.7 0.00 0.00 0.00 28 1008.0
20260508201541 17 0 4.8 19.3 0.00 0.00 0.00 30 1008.1
20260508200050 17 0 3.2 16.1 0.00 0.00 0.00 29 1008.3
20260508194538 17 0 3.2 20.9 0.00 0.00 0.00 31 1008.5
20260508193038 17 352 3.2 17.7 0.00 0.00 0.00 28 1008.5
20260508191550 17 0 6.4 14.5 0.00 0.00 0.00 30 1008.7
20260508190045 17 277 0.0 8.0 0.00 0.00 0.00 28 1008.8
20260508184539 18 244 1.6 16.1 0.00 0.00 0.00 29 1008.8
20260508183037 18 0 0.0 12.9 0.00 0.00 0.00 27 1009.1
20260508181538 18 0 3.2 16.1 0.00 0.00 0.00 28 1009.2
20260508180038 18 0 0.0 19.3 0.00 0.00 0.00 28 1009.2
20260508174542 18 0 0.0 8.0 0.00 0.00 0.00 28 1009.4
20260508173038 18 0 0.0 16.1 0.00 0.00 0.00 28 1009.7
20260508171538 18 0 0.0 12.9 0.00 0.00 0.00 28 1009.9
20260508170038 18 0 1.6 16.1 0.00 0.00 0.00 31 1010.2
20260508164538 18 0 0.0 12.9 0.00 0.00 0.00 31 1010.6
20260508163037 17 0 1.6 19.3 0.00 0.00 0.00 34 1010.8
20260508161540 17 280 1.6 14.5 0.00 0.00 0.00 33 1010.8
20260508160039 17 258 0.0 14.5 0.00 0.00 0.00 36 1010.9
20260508154538 17 0 3.2 16.1 0.00 0.00 0.00 36 1010.9
20260508153039 16 0 0.0 14.5 0.00 0.00 0.00 37 1011.0
20260508151537 16 0 0.0 11.3 0.00 0.00 0.00 40 1011.1
20260508150042 15 0 0.0 12.9 0.00 0.00 0.00 43 1011.3
20260508144543 15 0 0.0 11.3 0.00 0.00 0.00 52 1011.4
20260508143039 13 0 0.0 6.4 0.00 0.00 0.00 61 1011.5
20260508141540 11 0 0.0 0.0 0.00 0.00 0.00 75 1011.6
20260508140040 10 0 0.0 0.0 0.00 0.00 0.00 82 1011.6
20260508134539 8 0 0.0 0.0 0.00 0.00 0.00 85 1011.6
20260508133045 7 0 0.0 0.0 0.00 0.00 0.00 87 1011.7
20260508131545 6 0 0.0 0.0 0.00 0.00 0.00 87 1011.8
20260508130104 5 0 0.0 0.0 0.00 0.00 0.00 87 1011.8
20260508124539 4 0 0.0 0.0 0.00 0.00 0.00 86 1012.0
20260508123045 3 0 0.0 0.0 0.00 0.00 0.00 86 1012.1
20260508121538 2 0 0.0 0.0 0.00 0.00 0.00 85 1011.8
20260508120044 2 0 0.0 0.0 0.00 0.00 0.00 84 1011.7
20260508114543 1 0 0.0 0.0 0.00 0.00 0.00 83 1011.6
20260508113049 1 0 0.0 0.0 0.00 0.00 0.00 82 1011.5
20260508111538 1 0 0.0 0.0 0.00 0.00 0.00 81 1011.4
20260508110037 1 0 0.0 0.0 0.00 0.00 0.00 80 1011.4
20260508104603 1 0 0.0 0.0 0.00 0.00 0.00 80 1011.2
20260508103044 1 0 0.0 0.0 0.00 0.00 0.00 80 1011.1
20260508101541 1 0 0.0 0.0 0.00 0.00 0.00 79 1011.1
20260508100039 2 0 0.0 0.0 0.00 0.00 0.00 79 1011.2
20260508094544 2 0 0.0 0.0 0.00 0.00 0.00 79 1011.2
20260508093038 2 0 0.0 0.0 0.00 0.00 0.00 79 1011.4